73110-Advertising agencies



Company Registered Address Company Number YE Date Revenue GBP Net Profit GBP Other SIC codes
IPG HOLDINGS (UK) LIMITED , , 135 BISHOPSGATE, , LONDON, , ENGLAND, EC2M 3TP 02353279 2017-12-31 1,596,859,000 4,294,000 70100-Activities of head offices
OMNICOM MEDIA GROUP UK LIMITED , , BANKSIDE 3, 90 - 100 SOUTHWARK STREET, LONDON, , ENGLAND, SE1 0SW 04431736 2017-12-31 1,525,736,896 41,041,594
DENTSU UK LIMITED , , 10 TRITON STREET, REGENTS PLACE, LONDON, , , NW1 3BF 01939690 2017-12-31 1,436,670,000 -42,666,000
MEDIACOM UK LIMITED , , 124 THEOBALDS ROAD, LONDON, , , , WC1X 8RX 01199309 2017-12-31 1,131,479,000 14,221,000
PG MEDIA SERVICES LIMITED , , 1ST FLOOR 2 TELEVISION CENTRE, 101 WOOD LANE, LONDON, ENGLAND AND WALES, UNITED KINGDOM, W12 7FR 00926566 2017-12-31 672,815,000 11,546,000
WAVEMAKER LIMITED , , SEA CONTAINERS, 18 UPPER GROUND, LONDON, , UNITED KINGDOM, SE1 9ET 04078547 2017-12-31 477,971,000 5,684,000
ZENITH UK (MEDIA) LIMITED , , 1ST FLOOR 2 TELEVISION CENTRE, 101 WOOD LANE, LONDON, ENGLAND AND WALES, UNITED KINGDOM, W12 7FR 01921320 2017-12-31 448,882,000 1,946,000
PHD MEDIA LIMITED , , BANKSIDE 3 90-100 SOUTHWARK STREET, , LONDON, , ENGLAND, SE1 0SW 02423952 2015-12-31 443,006,795 6,888,360
JCDECAUX UK LIMITED , , 991 GREAT WEST ROAD, BRENTFORD, MIDDLESEX, , , TW8 9DN 01679670 2017-12-31 356,989,000 15,241,000
MEDIABRANDS LIMITED , , 16 OLD BAILEY, , LONDON, , ENGLAND, EC4M 7EG 00773961 2017-12-31 273,519,000 3,500,000
OGILVY & MATHER GROUP (HOLDINGS) LIMITED , , SEA CONTAINERS, 18 UPPER GROUND, LONDON, , ENGLAND, SE1 9RQ 00045810 2017-12-31 266,478,000 11,565,000
AWIN LTD 4TH FLOOR, 2 THOMAS MORE SQUARE, LONDON, ENGLAND, E1W 1YN 04010229 2017-12-31 263,643,000 5,270,000 63990-Other information service activities not elsewhere classified
HAVAS MEDIA LIMITED , , HAVAS HOUSE HERMITAGE COURT, HERMITAGE LANE, MAIDSTONE, , ENGLAND, ME16 9NT 02103123 2017-12-31 237,877,000 -13,710,000
GLOBAL OUTDOOR MEDIA LIMITED , , 7TH FLOOR, LACON HOUSE, 84 THEOBALDS ROAD, LONDON, , ENGLAND, WC1X 8NL 02866133 2017-12-31 206,419,000 27,741,000
DDB UK LIMITED , , 12 BISHOPS BRIDGE ROAD, LONDON, , , , W2 6AA 00933578 2017-12-31 206,096,104 6,815,076
MSIX COMMUNICATIONS LIMITED , , THE CHARLOTTE BUILDING 17 GRESSE STREET, NUMBER 6 EVELYN YARD ENTRANCE, LONDON, , ENGLAND, W1T 1QL 06665820 2017-12-31 183,512,000 1,317,000
WPP BRANDS (UK) LIMITED , , SEA CONTAINERS, 18 UPPER GROUND, LONDON, , ENGLAND, SE1 9PD 00390845 2017-12-31 172,619,000 19,036,000
ASTUS UK LIMITED , , DAVIDSON BUILDING, 5 SOUTHAMPTON STREET, LONDON, , , WC2E 7HA 04655574 2017-12-31 166,570,406 3,975,369
HOGARTH WORLDWIDE LIMITED , , 6 BREWHOUSE YARD, , LONDON, , ENGLAND, EC1V 4DG 06872427 2017-12-31 154,378,000 2,383,000 70100-Activities of head offices
CLEAR CHANNEL UK LIMITED , , 33 GOLDEN SQUARE, LONDON, , , , W1F 9JT 00950526 2017-12-31 137,010,000 8,638,000
ABBOTT MEAD VICKERS.BBDO LIMITED , , BANKSIDE 3 90-100 SOUTHWARK STREET, , LONDON, , ENGLAND, SE1 0SW 01935786 2017-12-31 121,594,482 7,741,761
MINDSHARE MEDIA UK LIMITED , , ROSE COURT, 2 SOUTHWARK BRIDGE ROAD, LONDON, , ENGLAND, SE1 9HS 03425312 2017-12-31 93,264,000 11,414,000
DIGITASLBI LIMITED , , C/O BRODIES LLP, CAPITAL SQUARE, 58 MORRISON STREET, EDINBURGH, , SCOTLAND, EH3 8BP SC177425 2017-12-31 84,942,000 6,640,000
IQVIA SOLUTIONS UK LIMITED , , 3 FORBURY PLACE, 23 FORBURY ROAD, READING, , UNITED KINGDOM, RG1 3JH 00634325 2017-12-31 74,436,000 5,039,000 73200-Market research and public opinion polling
82990-Other business support service activities not elsewhere classified
SPARK44 LIMITED , , 30 FENCHURCH STREET, , LONDON, , UNITED KINGDOM, EC3M 3BD 07535381 2018-03-31 69,667,602 4,594,706
RAPPORT OUTDOOR LIMITED , , 16 OLD BAILEY, , LONDON, , ENGLAND, EC4M 7EG 02230412 2017-12-31 68,265,000 435,000
OUTDOOR MEDIACOM LIMITED , , 124 THEOBALDS ROAD, LONDON, , , , WC1X 8RX 01254220 2017-12-31 67,711,655 255,457
WUNDERMAN THOMPSON COMMERCE UK LIMITED , , SEA CONTAINERS, 18 UPPER GROUND, LONDON, , UNITED KINGDOM, SE1 9GL 02360867 2017-12-31 64,949,076 7,494,025
KANTAR MEDIA UK LTD , , 222 GRAY'S INN ROAD, , LONDON, , ENGLAND, WC1X 8HB 00275304 2017-12-31 63,027,233 2,563,404
SAATCHI & SAATCHI GROUP LTD , , TOOKS COURT, 40 CHANCERY LANE, LONDON, , ENGLAND, WC2A 1JA 00231824 2017-12-31 59,163,000 2,717,000
MCCANN-ERICKSON ADVERTISING LIMITED , , 135 BISHOPSGATE, , LONDON, , ENGLAND, EC2M 3TP 01372305 2017-12-31 53,671,000 -139,000
MEDIABRANDS INTERNATIONAL LIMITED , , 16 OLD BAILEY, , LONDON, , ENGLAND, EC4M 7EG 03970701 2017-12-31 51,117,000 2,803,000
MULLENLOWE LONDON LIMITED , , C-SPACE, 37-45 CITY ROAD, LONDON, , ENGLAND, EC1Y 1AT 00680779 2017-12-31 49,397,000 -3,565,000
IPG DXTRA (UK) LIMITED , , 135 BISHOPSGATE, , LONDON, , ENGLAND, EC2M 3AN 02442501 2017-12-31 49,119,000 1,030,000
MAXUS COMMUNICATIONS (UK) LIMITED , , SEA CONTAINERS, 18 UPPER GROUND, , LONDON, , ENGLAND, SE1 9ET 02671949 2017-12-31 47,974,000 16,906,000
AKQA LIMITED , , 1 ST JOHN'S LANE, LONDON, , , , EC1M 4BL 02964394 2017-12-31 42,595,816 -332,251
GREY ADVERTISING LIMITED , , ROSE COURT, 2 SOUTHWARK BRIDGE ROAD, LONDON, , ENGLAND, SE1 9HS 00539916 2017-12-31 42,121,174 6,279,143
FCB INFERNO LIMITED , , 16 OLD BAILEY, , LONDON, , ENGLAND, EC4M 7EG 02586852 2017-12-31 41,217,000 1,498,000
MAP MEDIA LIMITED , , 10 QUEEN STREET PLACE, , LONDON, , UNITED KINGDOM, EC4R 1AG 06900818 2017-12-31 39,505,171 5,728,023
PUBLICIS LIMITED , , 1ST FLOOR 2 TELEVISION CENTRE, 101 WOOD LANE, LONDON, ENGLAND AND WALES, UNITED KINGDOM, W12 7FR 01046052 2017-12-31 36,634,000 1,858,000
UNIQUE DIGITAL MARKETING LIMITED , , LACON HOUSE, 84 THEOBALD'S ROAD, LONDON, , ENGLAND, WC1X 8NL 04138160 2017-12-31 33,832,185 0
CLEAR CHANNEL INTERNATIONAL LIMITED , , 33 GOLDEN SQUARE, LONDON, , , , W1F 9JT 00309019 2017-12-31 33,638,000 2,094,000
KINETIC WORLDWIDE LIMITED , , THE INSPIRE, HORNBEAM PARK, HARROGATE, , , HG2 8PA 01827251 2017-12-31 32,548,683 18,958,564
BLUE SQUARE MARKETING LIMITED , , TATE HOUSE, WATERMARK WAY, HERTFORD, HERTFORDSHIRE, , SG13 7TZ 06797461 2017-12-31 32,073,695 0
ESSENCE GLOBAL LIMITED , , SEA CONTAINERS, 18 UPPER GROUND, LONDON, , UNITED KINGDOM, SE1 9GL 05467689 2017-12-31 30,624,000 7,346,000
R/GA MEDIA GROUP LIMITED , , 99 CLIFTON STREET, , LONDON, , ENGLAND, EC2A 4LG 02366324 2017-12-31 27,976,000 -5,497,000
ORION TRADING EMEA LIMITED , , 16 OLD BAILEY, , LONDON, , ENGLAND, EC4M 7EG 03404334 2017-12-31 27,751,000 3,752,000
WUNDERMAN THOMPSON (UK) LIMITED , , GREATER LONDON HOUSE, HAMPSTEAD ROAD, LONDON, , ENGLAND, NW1 7QP 01660783 2017-12-31 26,871,000 125,000
MEDIACOM NORTH LIMITED 1 HARDMAN STREET, MANCHESTER, M3 3HF 03207931 2017-12-31 24,559,000 7,560,000
MRM WORLDWIDE (UK) LIMITED , , 135 BISHOPSGATE, , LONDON, , ENGLAND, EC2M 3TP 02507164 2014-12-31 19,704,000 1,957,000
MEDIABRANDS EMEA LIMITED , , 16 OLD BAILEY, , LONDON, , ENGLAND, EC4M 7EG 01206089 2017-12-31 18,020,000 4,341,000
MCCANN-ERICKSON HEALTHCARE UK LIMITED , , 135 BISHOPSGATE, , LONDON, , ENGLAND, EC2M 3TP 00687406 2017-12-31 17,741,000 1,745,000
HPS MARKETING COMMUNICATIONS LIMITED , , C/O DUFF & PHELPS LTD THE SHARD, 32 LONDON BRIDGE STREET, LONDON, , , SE1 9SG 04114693 2017-10-31 16,618,924 0
MOMENTUM ACTIVATING DEMAND LIMITED , , 135 BISHOPSGATE, , LONDON, , ENGLAND, EC2M 3TP 07949786 2017-12-31 14,406,000 -356,000
EQUI MEDIA LIMITED , , 7 PRIORY COURT, POULTON, CIRENCESTER, GLOUCESTERSHIRE, ENGLAND, GL7 5JB 03892399 2018-01-31 14,246,885 0 82990-Other business support service activities not elsewhere classified
THE BROOKLYN BROTHERS LIMITED , , 135 BISHOPSGATE, , LONDON, , ENGLAND, EC2M 3AN 06483331 2015-12-31 13,784,294 1,219,636
INVESTOO LTD , , 34-37 LIVERPOOL STREET, , LONDON, , ENGLAND, EC2M 7PP 10497349 2018-12-31 13,760,670 0
FBC (FUTUREBRAND) LIMITED , , 135 BISHOPSGATE, , LONDON, , ENGLAND, EC2M 3AN 02658364 2017-12-31 12,297,000 2,464,000
ADVERTISING EXCELLENCE LIMITED , , UNIT G4, ASH HOUSE BUSINESS CENTRE ASH ROAD, NEW ASH GREEN, LONGFIELD, KENT, ENGLAND, DA3 8JD 03508906 2017-12-31 9,744,142 0
FOX IPL LIMITED , , 135 BISHOPSGATE, , LONDON, , ENGLAND, EC2M 3AN 01343808 2017-12-31 9,297,000 1,764,000
LOVE CREATIVE LIMITED , , 3RD FLOOR 31 DALE STREET, , MANCHESTER, , , M1 1EY 04207025 2017-12-31 9,170,740 0 74100-specialised design activities
MULLENLOWE PROFERO LIMITED , , C-SPACE, 37-45 CITY ROAD, LONDON, , ENGLAND, EC1Y 1AT 03534827 2017-12-31 8,800,000 8,511,000 62090-Other information technology service activities
MEDIACOM SCOTLAND LIMITED , , 124 THEOBALDS ROAD, LONDON, , , , WC1X 8RX 03296603 2017-12-31 8,162,736 4,418,381
HUGO & CAT LTD , , 135 BISHOPSGATE, , LONDON, , ENGLAND, EC2M 3AN 04117164 2017-12-31 7,886,000 914,000
POINT THIRTEEN MEDIA LTD , , THE 13TH CHAPEL, GREATER HORSESHOE WAY KNOWLE, FAREHAM, HAMPSHIRE, , PO17 5LF 06036668 2017-12-31 7,561,447 0
WELLSET REPRO LIMITED 135 BISHOPSGATE, LONDON, UNITED KINGDOM, EC2M 3AN 03205960 2017-12-31 7,372,000 1,418,000 62090-Other information technology service activities
DIRECTIONGROUP LIMITED FIRST FLOOR, ORION HOUSE, 5 UPPER ST. MARTIN'S LANE, LONDON, ENGLAND, WC2H 9EA 01653414 2017-10-31 7,067,337 0
HUGE UK LIMITED , , 135 BISHOPSGATE, , LONDON, , ENGLAND, EC2M 3TP 04235088 2017-12-31 6,395,000 -525,000
RACONTEUR MEDIA LIMITED , , 2ND FLOOR, PORTSOKEN HOUSE, 155-157 MINORIES, LONDON, , UNITED KINGDOM, EC3N 1LJ 06641353 2017-12-31 6,023,717 0 58130-Publishing of newspapers
INFERNO LIMITED , , 16 OLD BAILEY, , LONDON, , ENGLAND, EC4M 7EG 02604658 2017-12-31 4,197,000 -5,000
FCB HEALTH LONDON LIMITED , , 135 BISHOPSGATE, , LONDON, , ENGLAND, EC2M 3TP 06367844 2017-12-31 3,677,000 -2,093,000
FCB EUROPE LIMITED , , 135 BISHOPSGATE, , LONDON, , ENGLAND, EC2M 3TP 03007253 2017-12-31 3,600,000 -472,000
FCB HEALTH HAMPSHIRE LIMITED , , 135 BISHOPSGATE, , LONDON, , ENGLAND, EC2M 3TP 02818414 2017-12-31 3,381,000 -480,000
EMERALD HOUSE ASSOCIATES LIMITED 7 GODWIN ROAD, CORBY, NORTHAMPTONSHIRE, UNITED KINGDOM, NN17 4DS 03295343 2017-12-31 3,369,063 0
QUICKTHINK MEDIA LIMITED 1ST FLOOR, 19 CLIFFTOWN ROAD, SOUTHEND-ON-SEA, ESSEX, UNITED KINGDOM, SS1 1AB 06703793 2018-12-31 3,186,059 0
NEWSWORKS , , 88 CRAWFORD STREET, LONDON, , , , W1H 2EJ 04618606 2017-12-31 2,860,709 0 73200-Market research and public opinion polling
KR MEDIA UK LIMITED , , 124 THEOBALDS ROAD, , LONDON, , , WC1X 8RX 05269703 2017-12-31 2,489,393 531,447
MTK CONNECT LTD , , LAKEVIEW HOUSE, 4 WOODBROOK CRESCENT, BILLERICAY, ESSEX, UNITED KINGDOM, CM12 0EQ 09926960 2017-12-31 2,102,835 0 62090-Other information technology service activities
THE BIG RD LIMITED , , FLOOR 3, HOLBORN TOWER, HIGH HOLBORN, LONDON, , ENGLAND, WC1V 6PL 07044229 2018-03-31 1,818,558 0
EYE AIRPORTS LIMITED , , AD HOUSE, 52 EAST PARADE, HARROGATE, NORTH YORKSHIRE, , , HG1 5LT 05850525 2017-12-31 1,740,156 0
COMMUNITY PARTNERS LIMITED C P MEDIA HOUSE, 7 HARRISON ROAD, HALIFAX, WEST YORKSHIRE, ENGLAND, HX1 2AF 07462517 2017-12-31 1,737,688 0 35110-Production of electricity
WILDWOOD PROJECTS LIMITED , , 16 BOULTERS COURT, MAIDENHEAD, BERKSHIRE, , , SL6 8TH 04691542 2017-05-31 1,272,398 0 43390-Other building completion and finishing
PARADUXX LIMITED , , ZIKO INFINITY BUSINESS SERVICES, 460, 4TH FLOOR, BROADSTONE MILL, BROADSTONE ROAD, STOCKPORT, , ENGLAND, SK5 7DL 09976595 2018-01-31 1,078,826 0
INTEGRITY COLUIT LIMITED , , ZIKO INFINITY BUSINESS SERVICES 460 4TH FLOOR BROADSTONE MILL, BROADSTONE ROAD, STOCKPORT, , ENGLAND, SK5 7DL 09979470 2018-02-28 1,059,194 0
DIXIELINE PROBUILD LIMITED , , 95 WILTON ROAD, , LONDON, , ENGLAND, SW1V 1BZ 09974859 2018-01-31 1,054,017 0
CARPETQUEST LIMITED , , 16 HIGH HOLBORN, , LONDON, , UNITED KINGDOM, WC1V 6BX 09979480 2018-02-28 1,037,722 0
GLOBALWIDE MEDIA EUROPE LIMITED , , FIRST FLOOR TEMPLEBACK, 10 TEMPLE BACK, BRISTOL, , UNITED KINGDOM, BS1 6FL 08057023 2017-12-31 1,032,413 0
SOLOMONS BALWYN LIMITED , , ZIKO INFINITY BUSINESS SERVICES, 460, 4TH FLOOR, BROADSTONE MILL, BROADSTONE ROAD, STOCKPORT, , ENGLAND, SK5 7DL 09980064 2018-02-28 1,028,335 0
BARN DISCOUNTS LIMITED , , 55 OLD BROAD STREET, , LONDON, , UNITED KINGDOM, EC2M 1RX 09980058 2018-02-28 1,012,386 0
HUNTER POOLE LIMITED , , ZIKO INFINITY BUSINESS SERVICES, 460, 4TH FLOOR, BROADSTONE MILL, BROADSTONE ROAD, STOCKPORT, , ENGLAND, SK5 7DL 09972263 2018-01-31 996,124 0
CORY ACE LIMITED , , 46-48 EAST SMITHFIELD, , LONDON, , ENGLAND, E1W 1AW 09976707 2018-01-31 984,608 0
CROWE CORN LIMITED , 4385, 09979176: COMPANIES HOUSE DEFAULT ADDRESS, , CARDIFF, , , CF14 8LH 09979176 2018-02-28 960,983 0
VERCIDA LIMITED , , 25 STATION ROAD, KINGS HEATH, BIRMINGHAM, , ENGLAND, B14 7SR 07503138 2018-01-31 931,662 0
CMGRP MARKETING SERVICES LIMITED , , 1 RADIAN COURT, KNOWLHILL, MILTON KEYNES, , , MK5 8PJ 01306069 2017-12-31 823,000 252,000
MSQD LIMITED MERCHANT HOUSE, 4TH FLOOR, CROOK STREET 4TH FLOOR, CROOK STREET, CHESTER, CHESHIRE, ENGLAND, CH1 2BE 07141988 2017-07-31 769,957 0
GREAT BUS ADVERTISING LIMITED 111 PARK STREET,, MAYFAIR, LONDON, UNITED KINGDOM, W1K 7JF 08105913 2017-06-30 732,840 0
GOOCITI LIMITED , , 10 PHILPOT LANE, , LONDON, , ENGLAND, EC3M 8AA 07648631 2016-12-31 598,621 0
IN THE BAG PROMOTIONS LIMITED 5 THE WITHIES, CRONDALL, FARNHAM, UNITED KINGDOM, GU10 5QS 09672652 2018-12-31 597,634 0
THE HOUSE LIMITED , , 81 THE CUT, , LONDON, , ENGLAND, SE1 8LL 04410205 2017-08-31 546,178 0
PACH SOLUTIONS LTD NETLEY HOUSE SHERE ROAD, GOMSHALL, GUILDFORD, SURREY, ENGLAND, GU5 9QA 08008603 2018-03-31 541,744 0
DILLINGER HUTTE UK LIMITED , , SUITE 5A LYSAGHTS WAY, , SCUNTHORPE, , ENGLAND, DN15 9YG 06560022 2017-12-31 497,990 0
BETTER AGENCY LIMITED 1 MOULSHAM STREET, CHELMSFORD, CM2 0HR 08276373 2017-12-31 461,621 0
VALLISTER LTD. WISTERIA GRANGE BARN, PIKES END, PINNER, ENGLAND, HA5 2EX 09483404 2017-12-31 446,050 0 70229-Management consultancy activities other than financial management
PUBLICITY OVERLOAD LIMITED , , 120 HIGH STREET, , EDGWARE, , ENGLAND, HA8 7EL 04407167 2019-03-31 430,776 0
THE MISSION CONTROL COMMUNICATIONS LTD 5F WEAVERS COURT, LINFIELD RD IND ESTATE, BELFAST, ANTRIM, BT12 5GH NI625896 2018-07-31 363,233 0
MARKETIZE LTD UNIT 19 MILLMEAD BUSINESS CENTRE, MILL MEAD ROAD, LONDON, ENGLAND, N17 9QU 08277639 2018-11-30 347,819 0
KALEIDOSCOPE. ADVERTISING. DESIGN. MARKETING LTD. , , SUITE 601,602,604B COTTON EXCHANGE, BIXTETH STREET, LIVERPOOL, , ENGLAND, L3 9LQ 02189580 2018-03-31 309,750 0
BEAM LONDON LTD , , 25 CHERTSEY ROAD ( FIRST FLOOR) CHERTSEY ROAD, CHOBHAM, WOKING, SURREY, ENGLAND, GU24 8PD 07327259 2018-07-31 291,910 0
ADRIENNE VAUGHAN & ASSOCIATES LIMITED HOWELL & CO (LEICESTER) LTD, , 1 BITTESWELL ROAD, , LUTTERWORTH, LEICS, , LE17 4EL 07021258 2017-09-30 266,471 0
ADS-SMART LIMITED , , THE BASEMENT OFFICE, 14 LEMON STREET, TRURO, CORNWALL, UNITED KINGDOM, TR1 2LS 09448257 2018-02-18 265,892 0
TOMASZDYL PR LTD 11 COLLEGE PLACE, SOUTHAMPTON, SO15 2FE 07915403 2019-01-31 264,368 0 78109-Other activities of employment placement agencies
PUBLICITY ENGINEERS LIMITED , , SUITE 5, 5TH FLOOR, LAMBOURN HOUSE, 7 WESTERN ROAD, ROMFORD, ESSEX, ENGLAND, RM1 3LD 05517065 2018-03-31 262,314 0
GRAPHIC EVOLUTION (HARROGATE) LIMITED AD HOUSE 52, EAST PARADE, HARROGATE, NORTH YORKSHIRE, HG1 5LT 08821504 2017-12-31 262,200 0
BPS MARKETING LIMITED , , 20 HAVELOCK ROAD, , HASTINGS, EAST SUSSEX, , TN34 1BP 05723475 2017-12-31 260,619 0 73120-Media representation services
IX MARKETING LIMITED , , THE READING ROOM WOLVERTON PARK ROAD, WOLVERTON, MILTON KEYNES, , ENGLAND, MK12 5FJ 01983879 2017-12-31 252,000 35,000
THIS AIN'T ROCK N' ROLL LIMITED , , 4TH FLOOR PARK GATE, 161-163 PRESTON ROAD, BRIGHTON, EAST SUSSEX, , BN1 6AF 06903369 2017-05-31 235,281 0
ART CONNECTION DIRECT LTD 3 BATH MEWS, BATH PARADE, CHELTENHAM, GLOUCESTERSHIRE, ENGLAND, GL53 7HL 09943257 2018-03-31 230,688 0
MINISTRY OF MARKETING LTD 85 GREAT PORTLAND STREET, FIRST FLOOR, LONDON, ENGLAND, W1W 7LT 10118346 2018-04-30 222,736 0
HASELOUR HOUSE MEDIA LIMITED , , 7 NEWFIELD COURT, 586 FULWOOD ROAD, SHEFFIELD, , , S10 3QE 04202472 2018-04-30 221,338 0 73120-Media representation services
AGGREGATORS UK LIMITED , , 44-48 MAGDALEN STREET, , NORWICH, , , NR3 1JU 07561411 2018-03-31 203,452 0
PERMISSION MEDIA GROUP LTD. , , ROHANS HOUSE, 92-96 WELLINGTON RD S, STOCKPORT, CHESHIRE, ENGLAND, SK1 3TJ 09140601 2018-07-31 191,865 0 62030-Computer facilities management activities
MEKX LTD , , SUITE 7, LONDON HOUSE BUSINESS CENTRE THAMES ROAD, CRAYFORD, DARTFORD, , ENGLAND, DA1 4SL 09044288 2018-05-31 187,866 0
THE COPY DEPARTMENT LTD. 24 DERRYVOLGIE AVENUE, BELFAST, NORTHERN IRELAND, BT9 6FN NI611026 2018-02-28 187,428 0
BRAND786 LTD , , 42 WESTWOOD GLEN, TILEHURST, READING, , ENGLAND, RG31 5NW 08256058 2017-10-31 186,486 0 59112-Video production activities
TLC PR LIMITED 52A BOLLINGTON ROAD, BOLLINGTON, MACCLESFIELD, CHESHIRE, SK10 5EJ 05678971 2019-05-31 185,462 0
RED BUTTON MARKETING LIMITED FARM END ANDREWS LANE, WILLINGTON, SHIPSTON-ON-STOUR, ENGLAND, CV36 5BF 09973125 2018-03-31 179,439 0
BCM AGENCY LIMITED , , ENTERPRISE HOUSE WREST PARK, SILSOE, BEDFORD, BEDFORDSHIRE, ENGLAND, MK45 4HS 10238918 2019-03-31 172,785 0
ALLEGIANT CONSULTING LTD 710 GRANITE APARTMENTS, 30 RIVER GARDENS WALK, LONDON, LONDON, UNITED KINGDOM, SE10 0GB 10236148 2018-12-31 171,698 0 70229-Management consultancy activities other than financial management
INTERNATIONAL ADVERTISING ASSOCIATION UNITED KINGDOMCHAPTER LIMITED ALBANY HOUSE, CLAREMONT LANE, ESHER, SURREY, KT10 9FQ 00723472 2017-06-30 165,727 0
CONCENTRATE LIMITED , , STUDIO 3 PINE COURT BUSINESS CENTRE, GERVIS ROAD, BOURNEMOUTH, DORSET, , BH1 3DH 04856624 2018-03-31 163,019 0
PPC INSIGHT LIMITED DAVID WHITE, , 76 ELDERSLIE STREET, , GLASGOW, , , G3 7AL SC485212 2018-08-31 161,169 0
THE YOU AGENCY DIGITAL LTD 2ND FLOOR, 167-169 GREAT PORTLAND STREET, LONDON, ENGLAND, W1W 5PF 08789567 2018-11-30 153,699 0
DEZIGN MEDIA LIMITED , , 11 BRAEMAR AVENUE, , ALEXANDRA PARK, LONDON, ENGLAND, N22 7BY 05553054 2018-09-30 152,287 0
DORIS LONDON LIMITED 41 ALMA ROAD, WINDSOR, BERKSHIRE, UNITED KINGDOM, SL4 3HN 10109428 2018-04-30 148,191 0
SPELLBRAND LIMITED 85 GREAT PORTLAND STREET, FIRST FLOOR, LONDON, UNITED KINGDOM, W1W 7LT 05461453 2018-05-31 146,700 0
NAKED PENGUIN BOY LIMITED , , C/O VALENTINE & CO GLADE HOUSE, 52-54 CARTER LANE, LONDON, , , EC4V 5EF 04222877 2018-03-31 141,587 0
THINQ MEDIA LIMITED , , WESTHILL HOUSE, 23A WOODLANDS, BEVERLEY, , ENGLAND, HU17 8BT 04616081 2018-04-30 140,833 0
THIS IS OUR TOWN LTD , , 6-8 FREEMAN STREET, , GRIMSBY, , ENGLAND, DN32 7AA 08048225 2017-04-30 128,074 0
MEDIAFED EXCHANGE LTD 27 VIAN AVENUE, ENFIELD, ENGLAND, EN3 6LQ 09358764 2018-12-31 127,025 0
TEMIMARKETING LTD , , 20-22 WENLOCK ROAD, , LONDON, , , N1 7GU 09333389 2018-11-30 124,980 0
PENCILFISH LIMITED , , DENNY LODGE BUSINESS PARK ELY ROAD, CHITTERING, CAMBRIDGE, CAMBRIDGESHIRE, , CB25 9PH 04509493 2018-03-31 124,181 0 90030-Artistic creation
ROOT TO BRANCH COMMUNICATIONS LTD BREWERY BARN THE GREEN, HATFIELD PEVEREL, CHELMSFORD, ENGLAND, CM3 2JQ 09082581 2018-06-30 119,566 0 62020-Information technology consultancy activities
62090-Other information technology service activities
SHORTLIST MARKETING LTD SPACE 2, DAKEYNE STREET, NOTTINGHAM, ENGLAND, NG3 2AR 07377250 2018-09-30 117,975 0
KASHMIL LIMITED 125 LONSDALE DRIVE, OAKWOOD, ENFIELD, MIDDLESEX, EN2 7NB 06515718 2018-02-28 116,778 0
RSR LAW LTD , , FLAT A, 120 HOWSON ROAD, HOWSON ROAD, LONDON, , ENGLAND, SE4 2AU 08446617 2019-01-31 116,325 0 69102-Solicitors
MORPH PR AND MARKETING LTD 30 GOLDSMITH AVENUE, SOUTHSEA, HAMPSHIRE, PO4 8QT 06479942 2018-03-31 114,765 0
ON A MISSION EVENTS LIMITED KARA ACCOUNTANTS, , THE SQUARE, FAWLEY, SOUTHAMPTON, , UNITED KINGDOM, SO45 1DD 10669739 2018-03-31 112,925 0 93290-Other amusement and recreation activities not elsewhere classified
EUPHITA LIMITED , , 72 OSBORNE ROAD, , FARNBOROUGH, HAMPSHIRE, , GU14 6AF 07336367 2018-08-31 111,430 0 59112-Video production activities
CHERRY CREATIVE LIMITED , , CRAFTWORK STUDIOS, 1-3 DUFFERIN STREET, LONDON, , , EC1Y 8NA 07085100 2017-12-31 110,959 0
TIDAL VENTURES LIMITED , , CEDAR LODGE, ALIPORE CLOSE, POOLE, DORSET, ENGLAND, BH14 9NS 10282133 2018-08-22 110,591 0
LETTERBOX SMART LTD UNIT 8, ENTERPRISE CENTER, JAMES STREET, CARLISLE, ENGLAND, CA2 5BB 09902425 2017-12-31 107,221 0
X.E. WEBSITE SOLUTIONS LTD , , 17 FENNFIELDS ROAD, SOUTH WOODHAM FERRERS, CHELMSFORD, ESSEX, , CM3 5RZ 03991504 2019-04-30 106,574 0
TORRE LORENZO DEVELOPMENT CORPORATION EUROPE LTD , , 13 HOGARTH PLACE, , LONDON, , ENGLAND, SW5 0QT 09226390 2018-09-30 104,136 0
EWORLD SYSTEMS LIMITED , , 71-75 SHELTON STREET, COVENT GARDEN, LONDON, , UNITED KINGDOM, WC2H 9JQ 10386890 2018-09-30 102,806 0
GO-PRESENT LIMITED , , RIVERSIDE HOUSE 3 PLACE FARM, WHEATHAMPSTEAD, ST. ALBANS, HERTS, ENGLAND, AL4 8SB 04292659 2019-03-31 101,684 0
PAUL RAYBOULD MARKETING LIMITED 4 STONELAKE COTTAGES CAMP HILL, CHIDDINGSTONE CAUSEWAY, TONBRIDGE, ENGLAND, TN11 8LB 05082472 2018-09-30 100,522 0
THE ADWORDS COMPANY LIMITED 61B CAROLINE STREET, BIRMINGHAM, WEST MIDLANDS, UNITED KINGDOM, B3 1UF 09525767 2018-03-31 100,450 0
JOJO SPORTS LTD SUITE 11, , PENHURST HOUSE, 352-356 BATTERSEA PARK ROAD, LONDON, , ENGLAND, SW11 3BY 10218449 2018-06-30 92,139 0
MBSA MARKETING LTD , , 68 FINNART STREET, , GREENOCK, INVERCLYDE, UNITED KINGDOM, PA16 8HJ SC536213 2017-09-30 90,760 0
OPUS STONE LIMITED , , 55 CHURCH DRIVE CHURCH DRIVE, QUEDGELEY, GLOUCESTER, , ENGLAND, GL2 4UW 06699177 2018-09-30 90,466 0
MCM2 LTD THE BARN DAISY BANK FARM TOP FARM LANE, CHOLMONDESTON, WINSFORD, CHESHIRE, CW7 4DR 08310922 2018-11-30 87,329 0
CATCH MEDIA LIMITED , , 9 LORRAINE GARDENS LANE, , GLASGOW, , SCOTLAND, G12 9PA SC551492 2017-12-31 83,422 0
COPPERFOX COMMUNICATIONS LIMITED 35 35 WEST CROFT, ORWELL, ROYSTON, UNITED KINGDOM, SG8 5PW 10061857 2019-03-31 82,850 0
OMAGH TODAY LTD 79 MOYLAGH ROAD, BERAGH, CO. TYRONE, BT79 0UN NI620364 2017-09-30 82,672 0
MARK HERRING LIMITED 4 LIMES AVENUE, LONDON, E11 2BP 06649478 2018-03-31 80,965 0
CURSORPRO LTD PIXEL BUILDING, 110 BROOKER ROAD, WALTHAM ABBEY, ENGLAND, EN9 1JH 10413714 2018-10-31 79,120 0 73120-Media representation services
73200-Market research and public opinion polling
GUSTO MARKETING LIMITED 48 QUEEN STREET, EXETER, DEVON, ENGLAND, EX4 3SR 09275541 2019-03-31 79,090 0
FINDMEA.COM LIMITED , , 3 SLATERS COURT, PRINCESS STREET, KNUTSFORD, , ENGLAND, WA16 6BW 03049695 2018-04-30 78,690 0
ENGINES ON DEMAND LTD STATION ROAD BUSINESS CENTRE STATION ROAD, CLOWNE, CHESTERFIELD, DERBYSHIRE, ENGLAND, S43 4RW 07546799 2018-03-31 77,340 0
ANDREW WATKINSON CREATIVE LTD , , 2 VINE HOUSE HIGH STREET, STAPLEHURST, TONBRIDGE, , UNITED KINGDOM, TN12 0AR 10846592 2019-07-31 75,600 0
TAW MARKETING SOLUTIONS LIMITED 38 EASTBOURNE HEIGHTS, OAK TREE LANE, EASTBOURNE, ENGLAND, BN23 8FB 08653151 2018-08-31 74,992 0
ADF CONSULTING LTD , , ROOM 3A, HILLCROFT HOUSE WHISBY ROAD, HILCROFT BUSINESS PARK, LINCOLN, , UNITED KINGDOM, LN6 3QJ 07690181 2018-07-31 74,821 0 58190-Other publishing activities
82110-Combined office administrative service activities
82990-Other business support service activities not elsewhere classified
PBA SIGNS & GRAPHICS UK LTD , , UNIT 2 THURROCK TRADE PARK, OLIVER ROAD, GRAYS, ESSEX, ENGLAND, RM20 3ED 06954505 2018-07-31 74,786 0 74100-specialised design activities
CHAPS AGENCY LTD 71-75 SHELTON STREET, COVENT GARDEN, LONDON, UNITED KINGDOM, WC2H 9JQ 09143041 2017-07-31 74,772 0
HYPERLINK MEDIA LTD 58 ASHMEAD DRIVE, COFTON HACKETT, BIRMINGHAM, ENGLAND, B45 8AB 07275401 2018-06-30 72,874 0 62020-Information technology consultancy activities
TOWER ENERGY LTD , , DOCKLANDS BUSINESS CENTRE SUITE 12/3D, 10-16 TILLER ROAD, DOCKLANDS, LONDON, , ENGLAND, E14 8PX 09511922 2018-03-31 72,438 0
INTERESTING CONTENT LIMITED INTERESTING CONTENT 49 GREEK STREET, GREEK STREET, LONDON, ENGLAND, W1D 4EG 08664456 2018-03-31 71,482 0
ANDYM LIMITED , , 85 VICTORIA WAY, VICTORIA WAY, LONDON, , , SE7 7NQ 08438109 2019-03-31 71,157 0
MARKETING ZONE LIMITED 136 VINERY ROAD, CAMBRIDGE, ENGLAND, CB1 3DT 03343075 2018-03-31 68,633 0
ESCHERMAN LTD , , PARKSHOT HOUSE, 5 KEW ROAD, RICHMOND, SURREY, , , TW9 2PR 06468929 2017-12-31 67,910 0 70210-Public relations and communications activities
CIRRUS MARKETING CONSULTING LIMITED 38 EXETER ROAD, SOUTHVILLE, BRISTOL, ENGLAND, BS3 1LZ 06791844 2019-05-04 67,688 0 70229-Management consultancy activities other than financial management
73200-Market research and public opinion polling
BLUE LINE DESIGN LIMITED , , 52 ORCHARD DRIVE, PARK STREET, ST ALBANS, HERTS, , , AL2 2QG 05974491 2018-12-31 67,165 0 58190-Other publishing activities
RAINDROP DIGITAL LIMITED BLAKE HOUSE, 18 BLAKE STREET, YORK, ENGLAND, YO1 8QG 09752865 2019-08-31 66,571 0
TOGADA LIMITED , , OFFICE 7 35-37 LUDGATE HILL, , LONDON, , ENGLAND, EC4M 7JN 09201069 2018-09-30 66,464 0 59112-Video production activities
90030-Artistic creation
STADIA MEDIA LTD C/O CLARKE BELL LIMITED 3RD FLOOR, THE PINNACLE, 73 KING STREET, MANCHESTER, M2 4NG 09361514 2018-12-31 65,403 0
RED LEMON SERVICES LIMITED CALEDONIA HOUSE, 3A DRAYCOTT BUSINESS PARK, MORETON-IN-MARSH, GLOUCESTERSHIRE, ENGLAND, GL56 9JY 04923864 2018-10-31 64,667 0
CORELLIAN ENTERPRISES LTD , , SAXON HOUSE, SAXON WAY, CHELTENHAM, GLOUCESTERSHIRE, , GL52 6QX 07676119 2018-06-30 62,329 0
MOLEJAM LIMITED 162-164 HIGH STREET, RAYLEIGH, ESSEX, ENGLAND, SS6 7BS 09413919 2018-03-31 62,200 0
REAL SOLUTIONS BEST NOBLE LTD , , IVY HOUSE, KING EDWARD STREET, BARMOUTH, GWYNEED, WALES, LL42 1NY 10210398 2018-06-30 61,250 0
BIG FUTURE LIMITED STAFFORDSHIRE KNOT, PINFOLD STREET, WEDNESBURY, WS10 8TE 04847587 2017-07-31 60,759 0
THAMES BUSINESS SOLUTIONS LTD BOUTIQUE 36 DIAMOND EMBELLECERS, HATTON GARDEN, LONDON, ENGLAND, EC1N 8EB 09028338 2018-03-31 60,619 0 69201-Accounting and auditing activities
70229-Management consultancy activities other than financial management
82990-Other business support service activities not elsewhere classified
KNAPP CREATE LIMITED FLAT 12 WILLOW COURT,, 5A COPERS COPE ROAD,, BECKENHAM,, KENT, UNITED KINGDOM, BR3 1PB 07479947 2018-12-31 57,620 0
SHAW PRODUCTIONS LTD , , 79 MARMORA ROAD, , LONDON, , ENGLAND, SE22 0RY 10203148 2018-05-31 56,965 0
PS PUBLICATIONS LTD FIRST FLOOR 41, CLIFFORD ROAD, BLACKPOOL, LANCS, FY1 2PU 07686737 2018-03-31 56,730 0
CINDER ROSE CREATIVE LIMITED 23 BARN CLOSE, ALBOURNE, HASSOCKS, ENGLAND, BN6 9DG 09434546 2018-02-28 55,234 0 47710-Retail sale of clothing in specialised stores
COMPELLING COPYWRITING LTD 215 GLOUCESTER ROAD, CROYDON, SURREY, CR0 2DW 08682860 2018-09-30 54,852 0
CARLOSBRAVO DESIGN LTD , , 19 WALDEGRAVE ROAD, CRYSTAL PALACE, LONDON, , ENGLAND, SE19 2AL 10752144 2019-03-31 54,679 0
EBUSINESS ENTERPRISE LIMITED 71-75 SHELTON STREET, LONDON, ENGLAND, WC2H 9JQ 06142083 2018-03-31 54,374 0 62012-Business and domestic software development
63120-Web portals
AUTOMARKETING LIMITED , , THE MAIDSTONE STUDIOS, VINTERS PARK, MAIDSTONE, KENT, , ME14 5NZ 05576377 2018-03-31 54,345 0
STARFISH PRODUCTION LIMITED SUITE 3 GRAPES HOUSE, 79A HIGH STREET, ESHER, ENGLAND, KT10 9QA 09480918 2018-03-31 53,935 0
LEXICON MARKETING LIMITED 2 WESTGATE TERRACE, WESTGATE STREET, LONG MELFORD, SUDBURY, SUFFOLK, CO10 9DW 08217936 2018-09-30 53,409 0
3 DRAGON MARKETING LTD SUITE 45, 17 HOLYWELL HILL, ST. ALBANS, ENGLAND, AL1 1DT 07229655 2018-04-30 53,380 0
ANTHONY SMITH ADVERTISING LTD 91 GLOUCESTER COURT, KEW ROAD, RICHMOND, SURREY, TW9 3DZ 05777094 2018-03-31 52,210 0
NERD LIMITED 18A KINGSWOOD ROAD, BROMLEY, ENGLAND, BR2 0NJ 10700961 2018-03-31 51,874 0 70229-Management consultancy activities other than financial management
73200-Market research and public opinion polling
VIPARA LIMITED 7 BERKELEY CLOSE, PITSTONE, LEIGHTON BUZZARD, BEDFORDSHIRE, LU7 9FG 07658418 2018-06-30 51,316 0
C-ME PRODUCTS LTD IDEAS HOUSE, EASTWOOD CLOSE, LONDON, E18 1RT 07532772 2018-02-28 51,217 0
MJCAV LTD TAXASSIST ACCOUNTANTS, 298 HIGH STREET, DORKING, RH4 1QX 09246127 2018-10-31 50,979 0
GOOGLE ADS LTD , , 10 MARE STREET, , HACKNEY, LONDON, , E8 4RT 08537202 2017-05-31 50,409 0 82990-Other business support service activities not elsewhere classified
1ST ADTUBE LIMITED 1 COLDBATH SQUARE, LONDON, ENGLAND, EC1R 5HL 10516561 2018-12-31 50,389 0
WRITERS REIGN LIMITED FLAT 2 3, HIGH STREET, MAIDENHEAD, BERKSHIRE, SL6 1JN 08759010 2018-10-31 49,853 0
POP REPUBLIC LIMITED 53 BARING ROAD, COCKFOSTERS, BARNET, ENGLAND, EN4 9BU 07308819 2018-07-31 47,688 0
JFONTE LTD 22 WHITE POST LANE, FLAT 303, 22 WHITE POST LANE, LONDON, ENGLAND, E9 5SZ 09433826 2019-02-28 47,594 0
SKYV LTD 31 LOWRY CLOSE, COLLEGE TOWN, SANDHURST, BERKSHIRE, UNITED KINGDOM, GU47 0FJ 09874350 2017-11-30 47,400 0 69202-Bookkeeping activities
DUNCAN HALL LTD , , 20 HERTFORD ROAD 20 HERTFORD ROAD, FLAT 4, LONDON, , ENGLAND, N1 5QS 10877897 2019-03-31 46,275 0 73200-Market research and public opinion polling
DAVIDCREATES LTD , , 92 SANDGATE HIGH STREET, SANDGATE, FOLKESTONE, , ENGLAND, CT20 3BY 08040777 2018-04-30 45,000 0
GERTYE FREELANCE LIMITED , , 40 BARTHOLOMEW CLOSE, , LONDON, , ENGLAND, SW18 1JQ 10704716 2019-04-30 44,500 0
FENTON WARD DESIGN LIMITED , , ENTERPRISE HOUSE C/O A.M. INSOLVENCY LIMITED, CARLTON ROAD, WORKSOP, NOTTS, , S81 7QF 04466700 2017-05-31 43,807 0
ABC MEDIA LIMITED , , FLOOR 1 MEDIUS HOUSE, 63-69 NEW OXFORD STREET, LONDON, , UNITED KINGDOM, WC1A 1DG 05008782 2016-12-31 43,597 0
TBA PR LONDON LTD , , 138 HASSELL STREET, , NEWCASTLE, , UNITED KINGDOM, ST5 1BB 10773522 2019-05-31 42,901 0
STEVE DAVIS GRAPHIC DESIGN LTD 82 HAYLING AVENUE, BAFFINS, PORTSMOUTH, ENGLAND, PO3 6EB 08435573 2018-03-31 42,077 0
AKOS BMC LTD , , JUBILEE HOUSE 3 THE DRIVE, GREAT WARLEY, BRENTWOOD, , ENGLAND, CM13 3FR 08172505 2017-08-31 41,449 0 62012-Business and domestic software development
82990-Other business support service activities not elsewhere classified
SUNBIRD CREATIVE LTD. 2 CLAN MCDONALD HOUSE, 47 BRAMHOPE LANE, LONDON, SE7 7FH 07786407 2018-09-30 40,957 0
TIM PALMER CREATIVE LIMITED , , 1H HAROLD ROAD, HORNSEY, LONDON, LONDON, UNITED KINGDOM, N8 7DE 10862815 2018-07-31 39,575 0
BRANDIFIQUE LTD 105 DISCOVERY DRIVE, KINGS HILL, WEST MALLING, ENGLAND, ME19 4DS 05630776 2018-03-31 38,949 0
OPTIM-EYEZ IT LTD , , 1 LANSDOWNE AVENUE, SHEPSHED, LOUGHBOROUGH, LEICESTERSHIRE, , LE12 9RR 09196661 2018-08-31 37,016 0 96090-Other service activities not elsewhere classified
ABBEYCROWN GRAPHICS LIMITED 43 WHITECROSS ROAD, WESTON-SUPER-MARE, AVON, BS23 1EN 08865988 2018-01-31 36,974 0
BERNARD GEORGE BARSLEY LTD 3A WINDERMERE AVENUE, KILBURN, LONDON, UNITED KINGDOM, NW6 6LP 09793181 2018-03-31 36,664 0
FREELANCELOT LONDON LTD , , TAXASSIST ACCOUNTANTS, 298 HIGH STREET, DORKING, , , RH4 1QX 09306534 2017-11-30 35,610 0
MINERVA CREATIVE MARKETING LIMITED 14 QUESTED WAY, HARRIETSHAM, MAIDSTONE, ENGLAND, ME17 1JJ 08932136 2018-03-31 35,607 0
JORDAN - ROSS CONSULTING LIMITED , , 2 STAMFORD SQUARE, , LONDON, , UNITED KINGDOM, SW15 2BF 10645995 2018-03-31 35,089 0
CASS BECK'S LTD FLAT 2 BUTTERFIELD COURT, 1B NEVILL ROAD, NEVILL ROAD, LONDON, ENGLAND, N16 8SH 10707314 2018-04-30 35,061 0
CHASEDESIGN WORLDWIDE LIMITED 135 BISHOPSGATE, LONDON, ENGLAND, EC2M 3TP 01973547 2017-12-31 35,000 11,000
WELL WORTH IT AGENCY LIMITED 7 PETLEY ROAD, LONDON, LONDON, UNITED KINGDOM, W6 9SU 09666344 2018-07-31 34,974 0
CHESHIRE CAT MARKETING LIMITED 80 WHITLOW LANE WHITLOW LANE, MOULTON, NORTHWICH, UNITED KINGDOM, CW9 8RH 10502381 2018-11-30 34,622 0 70210-Public relations and communications activities
BRANE LIMITED C/O INCISIVE ACCOUNTING UNIT 7 FORDWATER INDUSTRIAL ESTATE, FORD ROAD, CHERTSEY, SURREY, UNITED KINGDOM, KT16 8HG 08509087 2018-12-31 34,427 0
WORDSMITH EXPERTS LIMITED , , 19 ALZEY GARDENS, , HARPENDEN, HERTFORDSHIRE, , AL5 5SZ 08442463 2018-03-31 34,334 0 73120-Media representation services
ICON DESIGN & PRINT LIMITED 139 WILBRAHAM ROAD, FALLOWFIELD, MANCHESTER, M14 7DS 07163291 2018-02-28 33,828 0
L W JONES LIMITED 65 CHASE ROAD, LONDON, ENGLAND, N14 4QY 10723086 2018-04-30 33,712 0
M JAX LTD 483 GREEN LANES, LONDON, ENGLAND, N13 4BS 09228894 2018-09-30 33,426 0
LEVETSKY LTD , , 9 MOAT WALK, , CRAWLEY, , ENGLAND, RH10 7ED 10784196 2019-03-31 33,150 0
OMEGA3DESIGN LTD 10 10 LEIGHTON CLOSE, TWIGWORTH, GLOUCESTERSHIRE, ENGLAND, GL2 9GN 08950249 2018-04-04 32,987 0
PINK POUND MARKETING LIMITED , , KEYSTONE INNOVATION CENTRE, CROXTON ROAD, THETFORD, NORFOLK, ENGLAND, IP24 1JD 08907801 2019-02-28 32,923 0
M & A MARKETING LIMITED 3 BATH MEWS, BATH PARADE, CHELTENHAM, GLOUCESTERSHIRE, UNITED KINGDOM, GL53 7HL 10720124 2018-03-31 32,256 0 74209-Photographic activities not elsewhere classified
LONDON DIRECT MARKETING GROUP LIMITED , , 114 OLINDA ROAD 114 OLINDA ROAD, , LONDON, , UNITED KINGDOM, N16 6TP 10518865 2017-12-31 31,540 0
TOM KOCHAVI COPY LTD , , 26 MACDONALD ROAD, , LONDON, , , N11 3JB 07752489 2019-08-31 31,530 0
CREATIVE FORAGER LIMITED CURRAWONG, TATTENHAM ROAD, BROCKENHURST, HAMPSHIRE, ENGLAND, SO42 7SA 10374724 2018-09-30 31,359 0
LIBBY MIDDLEHURST LIMITED , , 40 ALWYNE ROAD, , LONDON, , UNITED KINGDOM, SW19 7AE 10851682 2018-07-31 31,122 0
INSIDE OUT MARKETING SOLUTIONS LTD. 30 CANTERBURY HOUSE, 2 WHARF STREET, LONDON, UNITED KINGDOM, SE8 3FZ 09541987 2018-04-30 30,782 0
COTTAGE TRADING LIMITED 3 KINETON COTTAGES, LITTLE KINETON, WARWICK, ENGLAND, CV35 0DN 09474540 2018-03-31 30,701 0
EXPLORE DIGITAL SOLUTIONS LIMITED HEATHER STOBBART, 81 CHURCH WAY, BOGNOR REGIS, WEST SUSSEX, ENGLAND, PO21 4QX 09465423 2018-03-31 30,151 0
EXCLUSIVELY THAMES VALLEY LIMITED THE OLD WEIR HOUSE, 29 ST PETER STREET, MARLOW, BUCKINGHAMSHIRE, ENGLAND, SL7 1NQ 10026001 2018-12-31 28,569 0
DFT MARKETING LIMITED ST MARTINS HOUSE 2 BARNSLEY ROAD, WATH-UPON-DEARNE, ROTHERHAM, SOUTH YORKSHIRE, ENGLAND, S63 6PY 09575862 2018-05-31 28,500 0
SAM STONE DESIGN LTD , , 26 FENNELS FARM ROAD FLACKWELL HEATH, AVON BOOKKEEPING & ACCOUNTS, HIGH WYCOMBE, , UNITED KINGDOM, HP10 9BS 09248116 2018-09-30 27,818 0 70210-Public relations and communications activities
73120-Media representation services
74100-specialised design activities
PI CREATIVE LIMITED , , 8 GLEBE COTTAGES, WALLINGFORD, ROAD, SOUTH STOKE, BERKSHIRE, , , RG8 0JA 06281338 2018-06-30 27,269 0
BIG IDEA MARKETING LIMITED , , 12 BEECHWOOD CLOSE, , HERTFORD, HERTFORDSHIRE, , SG13 7HW 07241340 2018-12-31 27,223 0 70210-Public relations and communications activities
50 POUND SOCIAL LTD 7 SADLER COPSE, LEEDS, UNITED KINGDOM, LS16 8NW 10297668 2018-07-31 27,193 0
GARETH PAUL JONES STUDIO LTD 45 FARMER ROAD, LEYTON, LONDON, ENGLAND, E10 5DL 10283405 2018-07-31 26,835 0
HOLNESS GLOBAL CORPORATION LIMITED 86-90 PAUL STREET, LONDON, ENGLAND, EC2A 4NE 09270135 2017-10-31 26,769 0 74909-Other professional, scientific and technical activities not elsewhere classified
UK COLLECTIVE LIMITED 19 OLD HALL STREET, LIVERPOOL, ENGLAND, L3 9JQ 09833080 2018-10-31 26,519 0
ISCA HEALTHCARE LTD 59 GLOUCESTER ROAD, EXETER, DEVON, EX4 2EE 10111420 2018-04-30 25,744 0 78109-Other activities of employment placement agencies
78200-Temporary employment agency activities
LUCY K TURNER LTD , , F25 WATERFRONT STUDIOS, 1 DOCK ROAD, LONDON, , UNITED KINGDOM, E16 1AH 10482907 2018-11-30 25,588 0
VR RAVAT LIMITED 53A MEADOW ROAD, PINNER, ENGLAND, HA5 1ED 08664606 2018-03-31 25,467 0
TDC & STUDIO LIMITED , , 70B SANDRINGHAM ROAD, , DALSTON, LONDON, UNITED KINGDOM, E8 2LL 10322905 2017-08-31 24,450 0
BUDA LIMITED , , 76 WITHAM HOUSE 13 ENTERPRISE WAY, , LONDON, , , SW18 1GB 09088865 2018-06-30 24,339 0
MAJIK MARKETING SOLUTIONS LIMITED , , 1 BUTT HAW CLOSE, HOO, ROCHESTER, , ENGLAND, ME3 9BA 08070897 2018-05-31 23,926 0
FASHION CULTURE LTD , , 16 POWLETT PLACE, CAMDEN TOWN, LONDON, , , NW1 8DR 08470394 2018-03-31 23,750 0 73200-Market research and public opinion polling
THE MARKETING DEPT LIMITED , , 3RD FLOOR WESTFIELD HOUSE, CHARTER ROW, SHEFFIELD, , , S1 3FZ 10518712 2018-12-31 23,615 0
BEST LOCAL BUILDER LTD 59 MORDEN ROAD, MITCHAM, SURREY, CR4 4DE 08941405 2018-03-31 23,377 0
SARAH FARRUGIA & CO LIMITED 21 ELLIS STREET, ELLIS STREET, LONDON, SW1X 9AL 06340902 2017-12-31 22,147 0
SUAVEHOUSE LTD 123 BREWERY ROAD, LONDON, ENGLAND, SE18 1NE 06567516 2018-03-31 21,542 0
MARIANNE WEST MARKETING LTD , , 19 SEYMOUR ROAD, BISHOPSTON, BRISTOL, , ENGLAND, BS7 9HS 09374687 2019-01-31 21,313 0 70210-Public relations and communications activities
VAN DE MOSSELAAR LTD DELTA POINT 33, DELTA STREET, LONDON, ENGLAND, E2 7BF 08688301 2018-09-30 21,163 0
GROW HACK SCALE LTD , , 71-75 SHELTON STREET, COVENT GARDEN, LONDON, , ENGLAND, WC2H 9JQ 10136778 2019-04-30 20,797 0 85590-Other education not elsewhere classified
CITY COPYWRITER LTD 63/66 HATTON GARDEN, FIFTH FLOOR SUITE 23, LONDON, ENGLAND, EC1N 8LE 08446145 2019-03-31 20,422 0 62020-Information technology consultancy activities
BULLETPOINT COPY LIMITED 46 TREDEGAR ROAD, EMMER GREEN, READING, ENGLAND, RG4 8QF 10542252 2018-12-31 20,002 0
L V GREEN LIMITED , , 112A UPPER CLAPTON ROAD, , LONDON, , ENGLAND, E5 9JY 10463011 2018-11-30 19,400 0
MEDIA VARIATION LIMITED , , 13 ASTRA ROAD, ASTRA BUSINESS PARK, TRAFFORD PARK, MANCHESTER, , , M17 1SU 07503905 2018-01-31 19,220 0
JOLLY CREATIVE LTD 22A PUTNEY HIGH STREET, PUTNEY HIGH STREET, LONDON, UNITED KINGDOM, SW15 1SL 10277642 2018-07-31 18,292 0 90030-Artistic creation
SURREPSUS LIMITED 71-75 SHELTON STREET, COVENT GARDEN, LONDON, ENGLAND, WC2H 9JQ 10906546 2018-08-31 18,187 0 47910-Retail sale via mail order houses or via Internet
EASY CLICK MARKETING LIMITED 635B ROUNDHAY ROAD, LEEDS, WEST YORKSHIRE, ENGLAND, LS8 4BA 10529080 2018-12-31 18,144 0
KAYRO LIMITED , , UNIT 19 MILLMEAD BUSINESS CENTRE, MILL MEAD INDUSTRIAL CENTRE, LONDON, , ENGLAND, N17 9QU 06890531 2018-04-30 17,856 0
ALEX PHIPPS LTD , , FLAT 8 46 - 48 BROADWAY MARKET, , LONDON, , ENGLAND, E8 4QJ 11201818 2018-01-11 17,710 0
MBTN GLOBAL LTD. , , EXPRESSWAY STUDIOS, 1 DOCK ROAD, LONDON, , ENGLAND, E16 1AH 10177550 2019-05-31 17,644 0 78300-Human resources provision and management of human resources functions
FONCALL LTD , , 25 BOULEVARD, , HULL, , , HU3 2TS 09303497 2018-11-30 17,528 0
SLV8 LIMITED ROCKLEY HOUSE MEADWAY, FRIMLEY, CAMBERLEY, SURREY, GU16 8TQ 08983471 2019-04-30 16,748 0
POWER DESIGN AND MEDIA LTD , , 92 PENNY LANE, COLLINS GREEN, WARRINGTON, , ENGLAND, WA5 4DS 11026771 2018-10-31 16,572 0
RIO NAPO COMMUNICATIONS LIMITED 85 CHUDLEIGH ROAD, LONDON, ENGLAND, SE4 1JX 07680738 2018-06-30 16,517 0 59200-Sound recording and music publishing activities
SL PHARMA SALES AND MARKETING LIMITED , , 48 WATER ROAD, , READING, , UNITED KINGDOM, RG30 2NN 10685596 2018-03-31 16,430 0 74909-Other professional, scientific and technical activities not elsewhere classified
SCISSOR INDUSTRIAL LTD. , , 16 OAKLANDS FOLD, ADEL, LEEDS, , ENGLAND, LS16 8NT 09054841 2018-03-31 15,917 0 47910-Retail sale via mail order houses or via Internet
ROOKSNEST LIMITED , , THE HOMESTEAD BALLINGER ROAD, SOUTH HEATH, GREAT MISSENDEN, BUCKS, UNITED KINGDOM, HP16 9QH 10243011 2018-06-30 15,625 0
KERVED LTD , , 86-90 PAUL STREET, , LONDON, , , EC2A 4NE 08747877 2018-10-31 15,137 0
TAG N STRIPE LIMITED , , 11/12 HALLMARK TRADING CENTRE, FOURTH WAY, WEMBLEY, MIDDLESEX, , HA9 0LB 08614542 2018-07-31 14,948 0
BRAND BY DESIGN LIMITED ROSE COTTAGE ANDREW HILL LANE, HEDGERLEY, SLOUGH, SL2 3UL 06356796 2018-12-31 14,930 0
FOLIO CREATIVE COMMUNICATION LIMITED , , RADIUS HOUSE 51 CLARENDON ROAD, , WATFORD, , ENGLAND, WD17 1HP 02059833 2018-12-31 14,688 0 90030-Artistic creation
BLOG AUTHENTIC LTD. , , 6 BRADING ROAD, , BRIGHTON, , ENGLAND, BN2 3PD 10647614 2018-03-31 14,265 0
ART CONNECTION CREATIVE SERVICES LIMITED , , 3 BATH MEWS, BATH PARADE, CHELTENHAM, GLOUCESTERSHIRE, ENGLAND, GL53 7HL 04636803 2017-06-30 14,160 0
SIMPLE MARKETING STUDIO LTD 17 PEACOCK CLOSE, KILLAMARSH, SHEFFIELD, ENGLAND, S21 1BF 10326665 2018-08-31 14,107 0 96090-Other service activities not elsewhere classified
RABBIT ADVENTURES LTD 21 VINE TREE AVENUE, CREWE, CW2 7NT 08907674 2018-02-28 14,038 0 47910-Retail sale via mail order houses or via Internet
62012-Business and domestic software development
74202-Other specialist photography
2B INTL LTD , , 37 LITTLE CROSS HOUSE, PHIPPS STREET, BRISTOL, , , BS3 1SQ 06712876 2018-09-30 13,554 0 47910-Retail sale via mail order houses or via Internet
85590-Other education not elsewhere classified
GET DINERS LIMITED , , 21 MONKS AVENUE, , BARNET, HERTFORDSHIRE, UNITED KINGDOM, EN5 1BZ 09940446 2018-01-31 13,227 0
MARKER LAB LTD , , 72 WADE STREET, , STOKE-ON-TRENT, , , ST6 1HN 08156344 2018-03-30 12,952 0 62020-Information technology consultancy activities
MARKETMEDIA LTD 86-90 PAUL STREET, LONDON, EC2A 4NE 07765565 2018-09-30 12,643 0 73120-Media representation services
VERTICAL IMAGE LTD BRAMBLE COTTAGE HORSHAM ROAD HORSHAM ROAD, BEARE GREEN, DORKING, SURREY, ENGLAND, RH5 4QT 05701189 2018-12-31 11,493 0
SWAN VENTURES LTD , , 37 CLARKE WAY, , STONE, , ENGLAND, ST15 0FS 10055888 2018-03-31 11,411 0 70229-Management consultancy activities other than financial management
ADRIEN MARAZZI EUROPE LIMITED , , 27 OLD GLOUCESTER STREET, , LONDON, , UNITED KINGDOM, WC1N 3AX 10176963 2018-05-31 11,125 0 47990-Other retail sale not in stores, stalls or markets
THE DIFFERENCE HOLDINGS LTD , , 31 BROWNFIELD STREET, , LONDON, , ENGLAND, E14 6ND 09755775 2018-09-30 11,000 0
STRETTO CREATIVE LIMITED , , 93 HEATHER ROAD, MELTHAM, HOLMFIRTH, , ENGLAND, HD9 4HT 07324562 2018-05-04 10,781 0
SPECTEL PRODUCTIONS LIMITED GRANSDEN HOUSE, STOKE PRIOR, LEOMINSTER, HEREFORDSHIRE, HR6 0NB 01805832 2018-03-31 10,367 0
BUMP LITE LTD. , , PARK FARM, MILEHAM, KINGS LYNN, NORFOLK, , PE32 2RD 08077708 2018-03-31 10,260 0
INEO R&D LTD , , INTERNATIONAL HOUSE, 24 HOLBORN VIADUCT, LONDON, , ENGLAND, EC1A 2BN 09610186 2017-05-31 10,131 0 70229-Management consultancy activities other than financial management
DAVIDCOURREAU LTD , , 12 JOHN PRINCES STREET, , LONDON, , UNITED KINGDOM, W1G 0JR 11170991 2018-08-31 10,080 0
EXTRA SURE LEGAL CARE LIMITED , , 101 NEW INN LANE NEW INN LANE, , STOKE-ON-TRENT, , , ST4 8HA 07995954 2018-03-31 9,877 0
BE SEEN BE FOUND LTD , , 18 PATCH WOOD GARDENS, NEWMILLERDAM, WAKEFIELD, , ENGLAND, WF2 6TT 10875014 2019-07-31 9,698 0 73120-Media representation services
VELOXIO LIMITED , , COTTON COURT, CHURCH STREET, PRESTON, , , PR1 3BY 08918752 2018-06-30 9,518 0 43341-Painting
RSS CREATIVE DESIGN LIMITED , , 36 ROLLS PARK ROAD, CHINGFORD, LONDON, WALTHAM FOREST, , E4 9BH 07364237 2017-09-30 9,360 0
ROCKWELL MEDIA LTD. , , 2 BURNETT WAY, HARTFORD, HUNTINGDON, CAMBRIDGESHIRE, , PE29 1EP 08212710 2018-09-30 9,158 0
ON & OFF CREATIVE LTD. 15 ASHCOMBE PARK ROAD, WESTON-SUPER-MARE, ENGLAND, BS23 2YE 08667904 2018-08-31 8,979 0 56210-Event catering activities
56290-Other food services
MYG21 LIMITED , , 17 CARLISLE STREET, , LONDON, , ENGLAND, W1D 3BU 08912213 2017-12-31 8,937 0
JAX ENTITIES LIMITED , , STUBBS CROSS TALLY HO ROAD, STUBBS CROSS, ASHFORD, , ENGLAND, TN26 1HL 10514983 2018-12-31 8,350 0
SAMUEL CLAY LIMITED , , 13 MAYFAIR AVENUE, NAILSEA, BRISTOL, , ENGLAND, BS48 2LR 10405119 2018-08-31 8,295 0
EMPIRE ADVERTISING LTD , , MILL COTTAGE, BASSET ROAD, LETCOMB BASSET, , ENGLAND, OX12 9LL 10978108 2019-03-31 8,159 0
4DETAIL LTD , , 10 THE VALE HORNDEAN, , WATERLOOVILLE, , ENGLAND, PO8 0HD 10053031 2018-03-31 7,812 0 99999-Dormant Company
NEVERMOR LTD , , 6 APSLEY TERRACE, , BRAUNTON, , ENGLAND, EX33 2EG 09895268 2018-11-30 7,795 0 62090-Other information technology service activities
TURBINE DIGITAL LTD , , 13 OAKWOOD ROAD, , RAYLEIGH, ESSEX, , SS6 9JH 07212009 2017-04-30 7,401 0 62020-Information technology consultancy activities
DM SOUND DESIGN LTD 85 GREAT PORTLAND STREET, LONDON, UNITED KINGDOM, W1W 7LT 07155121 2018-02-28 7,250 0 59200-Sound recording and music publishing activities
85590-Other education not elsewhere classified
HIRE A FIELD LTD , , HORIZONS LEATHERHEAD ROAD, OXSHOTT, LEATHERHEAD, SURREY, ENGLAND, KT22 0ET 10051180 2019-03-31 7,207 0 62090-Other information technology service activities
MD MARKETING CONSULTANCY LTD 50 RUSSELL ROAD, TODDINGTON, BEDFORDSHIRE, LU5 6QF 08929512 2018-05-04 7,135 0
WHAT MATTERS MOST LTD LYDCOTT FARM LYDCOTT LANE, WIDEGATES, LOOE, CORNWALL, UNITED KINGDOM, PL13 1QJ 10024603 2019-02-28 6,734 0
THE MARKETING GODS LTD. , 4385, 09338916: COMPANIES HOUSE DEFAULT ADDRESS, , CARDIFF, , , CF14 8LH 09338916 2018-12-31 6,388 0
NO SCRUNCHIE LTD NO SCRUNCHIE, , 4 HOLLY HOUSE, BOSTON MANOR ROAD, BRENTFORD, MIDDLESEX, , TW8 8DQ 08226081 2018-09-30 6,239 0 73200-Market research and public opinion polling
CREATIVE HORIZONS LIMITED 16 WHISTLETS CLOSE, SHELFLEYS, NORTHAMPTON, NN4 9XB 03138122 2018-03-31 6,169 0
UNWRITTEN LTD 3 BATH MEWS, BATH PARADE, CHELTENHAM, GLOUCESTERSHIRE, ENGLAND, GL53 7HL 09832890 2018-03-31 6,126 0 74100-specialised design activities
COPY AND CREATIVE LIMITED , , 11 RADNOR PARK CRESCENT, , FOLKESTONE, KENT, UNITED KINGDOM, CT19 5AS 09624089 2018-05-04 5,875 0 58190-Other publishing activities
ULTIMATE SEO SERVICES LIMITED , , 450 LODGE AVENUE, , DAGENHAM, ESSEX, , RM9 4QS 09145424 2018-09-30 5,749 0
DREWWERKS LIMITED , , 6 LYNWOOD AVENUE, , EPSOM, , UNITED KINGDOM, KT17 4LQ 10960242 2018-09-30 5,654 0
INFINITIVE AND BEYOND COPYWRITING LTD , , 41 RYE ROAD, , LONDON, , ENGLAND, SE15 3AX 09382619 2018-01-31 5,500 0
KREATIV FORDITAS LTD 20-22 WENLOCK ROAD, LONDON, N1 7GU. 08534943 2019-05-31 5,395 0 99999-Dormant Company
BLUMODE LIMITED , , 93 AINTREE ROAD, , CHATHAM, , ENGLAND, ME5 8PQ 10121590 2019-04-30 5,253 0
TOP E BUSINESS UK LIMITED 158 VICARAGE ROAD, SUNBURY-ON-THAMES, MIDDLESEX, TW16 7UB 08036957 2018-04-30 5,023 0 46900-Non-specialised wholesale trade
63990-Other information service activities not elsewhere classified
EXPEREVENT LTD 15 UPPER FRANCIS STREET, ABERTRIDWR, CAERPHILLY, UNITED KINGDOM, CF83 4DU 10879320 2018-07-31 4,915 0 82990-Other business support service activities not elsewhere classified
LOZZIPOOS DIGITAL LTD , , 26 THE LANCERS THE LANCERS, , FOLKESTONE, , ENGLAND, CT20 3FS 11011154 2018-10-31 4,625 0
ARDENT MARKETING LTD. , , FLAT A BOOTHFOLD HOUSE, BOOTH ROAD, ROSSENDALE, , ENGLAND, BB4 9BD 10794917 2018-05-31 4,605 0
ENERGY MEDIA UK LIMITED FERNHILLS HOUSE, TODD STREET, BURY, GTR MANCHESTER, UNITED KINGDOM, BL9 5BJ 10719889 2019-03-31 4,460 0 59113-Television programme production activities
PAINT IT BLACK LIMITED 10 ASHLEIGH CLOSE, BARBY, RUGBY, ENGLAND, CV23 8UG 10191529 2018-05-31 4,145 0
DESIGN BY ART LIMITED 17 HIGH STREET, OLNEY, ENGLAND, MK46 4EB 10452428 2018-10-31 4,138 0
NEW WEB LTD , , 1 PRINCETON MEWS, 167-169 LONDON ROAD, KINGSTON UPON THAMES, SURREY, , KT2 6PT 05441217 2018-05-31 4,000 0
LANDSCAPECLICK LTD , , 38A GREEN END, RENHOLD, BEDFORD, BEDFORDSHIRE, ENGLAND, MK41 0LJ 09593243 2017-05-31 3,956 0
SPOTTED MARKETING LIMITED 3 CASTELL MORGRAIG, CAERPHILLY, CF83 3JH 09359348 2018-12-31 3,900 0 70210-Public relations and communications activities
73120-Media representation services
CAPITAL 87 LTD , , 20-22 WENLOCK ROAD, , LONDON, , ENGLAND, N1 7GU 09002875 2018-04-30 3,875 0 70229-Management consultancy activities other than financial management
SAFETYNET MEDIA SERVICES LTD , , UNION HOUSE, 111 NEW UNION STREET, COVENTRY, , ENGLAND, CV1 2NT 09830354 2018-10-31 3,365 0 58142-Publishing of consumer and business journals and periodicals
REMARKABLE HOLIDAYS LIMITED , , 5 CROFTERS MILL, SUTTON-IN-CRAVEN, KEIGHLEY, WEST YORKSHIRE, , BD20 7EW 07516210 2019-02-28 3,333 0
MOYESA AND COMPANY LIMITED , , 86-90 PAUL STREET, , LONDON, , ENGLAND, EC2A 4NE 10117062 2018-04-30 3,282 0
THAME HUB LTD 75 CROMWELL AVENUE, 75 CROMWELL AVENUE, THAME, OXON, UNITED KINGDOM, OX9 3YE 10075621 2019-03-31 3,261 0
SHOPPING TROLLEY LTD , , SPITAL HOUSE, THE SPITAL, YARM, CLEVELAND, , TS15 9EU 07402425 2018-03-31 3,167 0
SMALLBRAND LTD FLAT 15 SUEZ WAY, SALTDEAN, BRIGHTON, ENGLAND, BN2 8AX 10031139 2018-02-28 3,000 0 90030-Artistic creation
STRIPEYGIRAFFE LTD BRYDEN JOHNSON KINGS PARADE, LOWER COOMBE STREET, CROYDON, SURREY, UNITED KINGDOM, CR0 1AA 07794554 2017-10-31 3,000 0
APART LIMITED 47 BLENHEIM ROAD, LONDON, ENGLAND, E6 3EG 08502742 2018-04-30 2,826 0 41202-Construction of domestic buildings
NICK LUND ASSOCIATES LTD 5 MINTON PLACE, VICTORIA ROAD, BICESTER, ENGLAND, OX26 6QB 09571275 2018-03-31 2,567 0 70229-Management consultancy activities other than financial management
PLAY GOLF NORTH EAST LTD , , 3 GREENSFIELD FARM COTTAGES, , ALNWICK, NORTHUMBERLAND, UNITED KINGDOM, NE66 2AD 09417451 2018-02-28 2,400 0
HUGHES KROON LIMITED , , 2 PARK AVENUE, BEDMINSTER, BRISTOL, , ENGLAND, BS3 5AH 09886943 2018-11-30 2,252 0
P&D INTERACTIVE LTD. , , OFFICE 32 19-21 CRAWFORD STREET, , LONDON, , UNITED KINGDOM, W1H 1PJ 10355763 2018-09-30 2,236 0 46900-Non-specialised wholesale trade
RAVENS 8 LTD , , 7 CAMBRIDGE AVENUE, , NEW MALDEN, SURREY, UNITED KINGDOM, KT3 4JY 10277514 2018-07-31 2,100 0 70210-Public relations and communications activities
APOLLONIA LIMITED , , 19 BAYTREE COURT HOSPITAL HILL, , CHESHAM, BUCKINGHAMSHIRE, , HP5 1DX 05749544 2018-03-31 2,042 0
CHISWICK MEDIA LTD 72-74 CHISWICK HIGH ROAD, LONDON, ENGLAND, W4 1SY 07638402 2018-05-31 1,807 0
MOBIMARVEL LTD FLAT 4, 15 UPPER GROVE, SOUTH NORWOOD, LONDON, ENGLAND, SE25 6JX 09064692 2018-05-31 1,800 0
QUERCUS DIGITAL LIMITED 47 WINDLEY CLOSE, LONDON, UNITED KINGDOM, SE23 3YH 07574322 2018-03-31 1,773 0
THE WEBSITE SPACE LIMITED 160 KEMP HOUSE, CITY ROAD, LONDON, ENGLAND, EC1V 2NX 09371717 2018-01-31 1,675 0 47789-Other retail sale of new goods in specialised stores (not commercial art galleries and opticians)
79909-Other reservation service activities not elsewhere classified
PLYMOUTH HOUR LTD 36 NEW STREET, PLYMOUTH, UNITED KINGDOM, PL1 2NA 10360184 2018-09-30 1,645 0
ADICIAS DIGITAL MARKETING LTD , , 79 KENWORTHY ROAD, , BRAINTREE, ESSEX, UNITED KINGDOM, CM7 1JJ 10553150 2018-01-31 1,636 0
TELL TAYLES LTD , , 27 OLD GLOUCESTER STREET, , LONDON, , UNITED KINGDOM, WC1N 3AX 10246964 2018-06-30 1,600 0
PROPERTOGRAPHY LTD , , 81 JOHN ARCHER WAY, , LONDON, , , SW18 2TT 08707094 2018-09-30 1,489 0
MUSCLE LIMITED , , 4 CARTER CLOSE, BROCKWORTH, GLOUCESTER, , ENGLAND, GL3 4BP 10572800 2018-01-31 1,440 0
GENESIS INFINITY LIMITED 2 JORDAN STREET, KNOTT MILL, MANCHESTER 2 JORDAN STREET,, KNOTT MILL,, MANCHESTER, ENGLAND, M15 4PY 08091199 2018-03-31 1,255 0 62012-Business and domestic software development
74100-specialised design activities
PUG MUG MARKETING LIMITED 18 RADNOR GREEN, WEST BROMWICH, ENGLAND, B71 1JL 10371822 2018-09-30 1,204 0
RELIABLE INDEX LTD , , 152 CITY ROAD, , LONDON, , , EC1V 2NX 09228281 2018-09-30 1,200 0
JARED SOCIAL MEDIA LIMITED , , 4 HEATHSIDE GARDENS, , WOKING, , ENGLAND, GU22 7HR 10502361 2018-11-30 1,171 0 70210-Public relations and communications activities
73120-Media representation services
CLARHAM LTD , , 38A GREEN END, RENHOLD, BEDFORD, BEDFORDSHIRE, , MK41 0LJ 08406137 2018-02-28 1,149 0 58110-Book publishing
BALLOONINGMEDIA LTD , , 19 BRANDON HOUSE, JACOBS WELLS ROAD, BRISTOL, , , BS8 1DT 08011385 2018-03-31 1,000 0
RATHER SPLENDID LTD , , 150A CAMDEN STREET, , LONDON, , ENGLAND, NW1 9PA 10579853 2018-01-31 1,000 0 62020-Information technology consultancy activities
74100-specialised design activities
90030-Artistic creation
SOLARBOX LONDON LTD 80 ASHLEY ROAD ASHLEY ROAD, HALE, ALTRINCHAM, ENGLAND, WA14 2UN 08992639 2018-04-30 990 0 90030-Artistic creation
LOVELEIGH MARKETING LTD , , 12 PROSPECT ROAD, , HUNGERFORD, BERKSHIRE, ENGLAND, RG17 0JL 10072062 2019-03-31 980 0
THE SEARCH MARKETING SERVICE LTD , , 27 FARADAY CLOSE, ARBORFIELD, READING, , ENGLAND, RG2 9NR 08377077 2018-01-31 970 0
SUPERSET LTD 128 CITY ROAD, LONDON, UNITED KINGDOM, EC1V 2NX 10645977 2019-03-31 960 0 70229-Management consultancy activities other than financial management
ECLIPSE STRATEGIC LTD , , 67 TESTWOOD ROAD, , WINDSOR, , ENGLAND, SL4 5RL 10150043 2018-04-30 950 0
"SKELBKITES"ADVERTISING LIMITED THE OLD EXCHANGE, 234 SOUTHCHURCH ROAD, SOUTHEND-ON-SEA, ESSEX, SS1 2EG 07766848 2018-09-30 932 0
MADE BY DM LTD 3 HUNTLY ROAD, EDGBASTON, BIRMINGHAM, WEST MIDLANDS, B16 8JG 05817021 2018-05-31 800 0
EFGY LTD , , UNIT C3 KNIGHTS PARK INDUSTRIAL ESTATE, KNIGHT ROAD, ROCHESTER, KENT, ENGLAND, ME2 2LS 03952253 2018-03-31 750 0
LAWEE LTD , , 71 DREGHORN DRIVE, , EDINBURGH, , SCOTLAND, EH13 9PQ SC564778 2018-05-31 683 0 82990-Other business support service activities not elsewhere classified
PTOPY LTD 71-75 SHELTON STREET, COVENT GARDEN, LONDON, UNITED KINGDOM, WC2H 9JQ 09575421 2018-05-31 617 0
SYDKA LTD 960 ALUM ROCK ROAD, BIRMINGHAM, ENGLAND, B8 2LS 07758251 2018-08-31 608 0 62012-Business and domestic software development
85200-Primary education
QUBE LONDON LIMITED , , LOWER GROUND FLOOR, 111 CHARTERHOUSE STREET, LONDON, , , EC1M 6AW 06270459 2018-06-30 600 0
MANY SOLUTIONS LIMITED , , FAIRGATE HOUSE, SUITE B /MY BETTER ACCOUNTANCY/ KINGS ROAD, TYSELEY, BIRMINGHAM, , UNITED KINGDOM, B11 2AA 10725565 2018-04-30 571 0 63120-Web portals
RIPPLEOUT MARKETING LIMITED , , 6 WILLIAMSON ROAD, WHALEY BRIDGE, HIGH PEAK, DERBYSHIRE, ENGLAND, SK23 7AW 10102057 2018-04-30 550 0
BRADLEY CONSULTING LIMITED , , 71-75 SHELTON STREET, COVENT GARDEN, LONDON, , ENGLAND, WC2H 9JQ 03023181 2018-03-31 500 0
HARKII LIMITED 4TH FLOOR, 18 ST. CROSS STREET, LONDON, ENGLAND, EC1N 8UN 10757899 2018-05-31 500 0 58190-Other publishing activities
59112-Video production activities
JOB AFFAIR LIMITED , , OLIVE HOUSE, 25A ALBERT STREET, ILKESTON, , UNITED KINGDOM, DE7 5GU 06436894 2017-12-31 383 0
SOLUTION FOR TECH LIMITED SOLUTION FOR TECH, , 49 STATION ROAD, , POLEGATE, EAST SUSSEX, , BN26 6EA 07794925 2018-10-31 350 0 62020-Information technology consultancy activities
4TH PHASE LTD , , UNIT C5, APOLLO COURT, CATTDOWN, PLYMOUTH, NEPTUNE PARK, PLYMOUTH, , ENGLAND, PL4 0SJ 10511675 2018-12-31 250 0 70229-Management consultancy activities other than financial management
TLH ONLINE LIMITED 144 PENNANT ROAD, SWISS VALLEY, LLANELLI, DYFED, SA14 8HN 05955031 2018-10-31 250 0
TRAVEL VIEWPOINT LIMITED , , 17 NORTHWICH ROAD, , KNUTSFORD, , UNITED KINGDOM, WA16 0AB 10440088 2018-10-31 232 0
LOUISE SLOPER DESIGN LTD 38 BARNFIELD PLACE, ISLE OF DOGS, LONDON, E14 9YA 06686259 2018-09-30 212 0 82990-Other business support service activities not elsewhere classified
PURCHASEPOINT EVENTS LIMITED , , 1 MELLINGES CLOSE, , WEST MALLING, KENT, , ME19 6FW 05216508 2018-12-31 183 0
GOSSH LIMITED 28 GLADWYN ROAD, LONDON, SW15 1JY 07934936 2018-02-28 175 0 62090-Other information technology service activities
FOLLOWBACK MEDIA LTD , , 48 GOLDCREST, WILNECOTE, TAMWORTH, , , B77 5NS 08672618 2018-01-09 162 0 73120-Media representation services
L7 COMMUNICATIONS LIMITED , , 61 FOUNTAIN HOUSE, THE BOULEVARD, LONDON, , ENGLAND, SW6 2TQ 08584828 2018-06-30 159 0
SAUCE - DM LIMITED , , 6 PENNINE WAY, POGMOOR, BARNSLEY, SOUTH YORKSHIRE, , S75 2HT 05729985 2019-03-31 113 0
BRUCE TURNER ASSOCIATES LIMITED 1 MELLINGES CLOSE, WEST MALLING, KENT, ME19 6FW 04254300 2018-12-31 100 0
IRONESS ARTS LIMITED 7 HOBART GARDENS, CROYDON, SURREY, CR7 8LR 04779047 2019-05-31 30 0
UNIOMARKET LTD , , 102 MONKSFIELD WAY, , SLOUGH, , ENGLAND, SL2 1QU 08665929 2017-08-27 4 0 47910-Retail sale via mail order houses or via Internet
ALGORITHM HOLDINGS LIMITED , , 4 TITCHFIELD CLOSE, , BURGESS HILL, WEST SUSSEX, , RH15 0RX 06993177 2019-01-31 1 0
HELLO ELEPHANT LTD , , 135 BISHOPSGATE, , LONDON, , ENGLAND, EC2M 3TP 09301267 2017-12-31 0 0
HUSTLE DIGITAL LTD 99 CLIFTON STREET, LONDON, ENGLAND, EC2A 4LG 09301204 2017-12-31 0 -33,000
ADMETRICS MEDIA LTD UNIT 4D, LANSBURY BUINESS ESTATE 102 LOWER GUILDFORD ROAD, KNAPHILL, WOKING, SURREY, ENGLAND, GU21 2EP 07247274 2018-12-31 0 0
AYESHA DE SILVA CONSULTING LIMITED , , 37 BRAESIDE, , BECKENHAM, KENT, , BR3 1ST 08190678 2018-08-31 0 0
B COMMERCIAL LIMITED , , 11 HAYES CHASE, , WEST WICKHAM, KENT, , BR4 0HU 04115525 2018-03-31 0 0
BABBLAH LTD , , 12A WINCHESTER COURT VICARAGE GATE, , LONDON, , UNITED KINGDOM, W8 4AB 10335867 2018-08-31 0 0 26110-Manufacture of electronic components
72190-Other research and experimental development on natural sciences and engineering
BEAU LOCHS LIMITED , , THE THATCHED HOUSE WESTLAND GREEN, LITTLE HADHAM, WARE, , ENGLAND, SG11 2AL 05287269 2018-04-30 0 0
BRING IT ON SOCIAL LTD 1 ELM WAY, CHADDERTON, OLDHAM, ENGLAND, OL9 7FL 10311361 2018-08-31 0 0
DMC3 LTD , , 43 CONISCLIFFE ROAD, , DARLINGTON, CO. DURHAM, , DL3 7EH 04561257 2018-09-30 0 0 85590-Other education not elsewhere classified
DRAVINA ENTERPRISES LTD. , , 21 FINSBURY STREET, , ALFORD, , ENGLAND, LN13 9BH 10422443 2018-10-31 0 0 47910-Retail sale via mail order houses or via Internet
ELBEO UK LIMITED 63 63 SHOVELLER DRIVE,, APLEY, TELFORD, SHROPSHIRE, ENGLAND, TF1 6GQ 07313998 2018-07-31 0 0 70229-Management consultancy activities other than financial management
73200-Market research and public opinion polling
FRAZER ABBEY STORY LIMITED 10 STABLES END, ORPINGTON, KENT, BR6 8PD 01161465 2019-01-31 0 0
GLO-BED (UK) LTD 82 LONGFIELD AVENUE, FAREHAM, HAMPSHIRE, PO14 1JR 05226042 2019-01-31 0 0
JAPAN NAKAMA LTD , , 116 MORTLAKE ROAD, , ILFORD, , UNITED KINGDOM, IG1 2SZ 10111470 2019-04-30 0 0 63120-Web portals
90030-Artistic creation
LARUNDA COMMUNICATIONS LIMITED , , ARCADIA HOUSE, 3 CLEVELAND AVENUE, NORTH SHIELDS, , UNITED KINGDOM, NE29 0NU 10970175 2018-03-31 0 0 70210-Public relations and communications activities
73120-Media representation services
LIGHTBOX CREATIV LIMITED 4385, 09093260: COMPANIES HOUSE DEFAULT ADDRESS, CARDIFF, CF14 8LH 09093260 2018-06-30 0 0
LOVEABLE LIMITED 1 THE OAKS MILL FARM COURTYARD, BEACHAMPTON, MILTON KEYNES, BUCKINGHAMSHIRE, UNITED KINGDOM, MK19 6DS 10027037 2018-03-31 0 0
MACLEOD BLAINE LIMITED 4 PIPPIN ROAD, EAST PECKHAM, TONBRIDGE, KENT, TN12 5BT 02805895 2018-03-31 0 0 62090-Other information technology service activities
MEDIA MARKETING LIMITED , , 2A TORRIANO AVENUE, CAMDEN TOWN, LONDON, LONDON, ENGLAND, 10659858 2018-03-31 0 0
MERRIE MARKETING LIMITED , , OLD ORCHARD, KEMPLEY GREEN, DYMOCK, GLOUCESTERSHIRE, , GL18 2BN 07918757 2018-06-30 0 0 70229-Management consultancy activities other than financial management
MMEDIA GROUP LIMITED ENTERPRISE HOUSE AVIATION PARK, WEST BM INTL AIRPORT, CHRISTCHURCH, DORSET, BH23 6NW 05306827 2018-12-31 0 0
NAVIGATE NDC LIMITED , , WATERS GREEN HOUSE, SUNDERLAND STREET, MACCLESFIELD, CHESHIRE, ENGLAND, SK11 6LF 05537906 2018-08-31 0 0 78109-Other activities of employment placement agencies
OLLO LIMITED , , 188 BROUGHTON AVENUE, , AYLESBURY, BUCKINGHAMSHIRE, , HP20 1PX 05223301 2019-03-31 0 0 62012-Business and domestic software development
QUINT BRANDS LTD. , , 92 WHEATLANDS, , HOUNSLOW, , ENGLAND, TW5 0SB 10115757 2018-04-30 0 0
RANK ME HIGHER LTD FLAT 27 BRIAN COURT, 2 ROWLAND ROAD, LONDON, UNITED KINGDOM, N17 7EL 11071512 2018-11-30 0 0 70229-Management consultancy activities other than financial management
ROSEWOOD ADVERTISING LIMITED , , 109-110 VIGLEN HOUSE ALPERTON LANE, , ALPERTON, , , HA0 1HD 03843446 2017-09-30 0 0
SEARCH FOCUSED LIMITED , , 11 LIDGETT HILL, , LEEDS, , UNITED KINGDOM, LS8 1PE 10751971 2018-05-31 0 0
SEIQ LTD , , 247 STENSON ROAD, , DERBY, , ENGLAND, DE23 1JN 10022018 2018-02-28 0 0
SMORGASBORD STUDIO LIMITED TUDOR HOUSE, 16 CATHEDRAL ROAD, CARDIFF, UNITED KINGDOM, CF11 9LJ 06640681 2019-03-31 0 0 74100-specialised design activities
THE EFFECTIVE DIRECTORIES LIMITED , , DATUM HOUSE, ELECTRA WAY, CREWE, CHESHIRE, ENGLAND, CW1 6ZF 06780706 2019-03-31 0 0
THE HENLEY GROUP INTERNATIONAL LIMITED MARKET HOUSE, 33 MARKET PLACE, HENLEY-ON-THAMES, OXON, ENGLAND, RG9 2AA 05810119 2018-12-31 0 0
TOURIST POINT LTD , , 47 DEAN STREET, , LONDON, , , W1D 5BE 09856901 2018-11-30 0 0 73200-Market research and public opinion polling
WINNER MEDIA LIMITED FLAT 6, SUFFOLK HOUSE, PRINCES ROAD, WEYBRIDGE, ENGLAND, KT13 9BH 10442737 2018-10-31 0 0 73120-Media representation services
APL GROUP LIMITED 135 BISHOPSGATE, LONDON, ENGLAND, EC2M 3TP 00235734 0000-00-00 0 0
BARTLE BOGLE HEGARTY LIMITED 1ST FLOOR 2 TELEVISION CENTRE, 101 WOOD LANE, LONDON, ENGLAND AND WALES, UNITED KINGDOM, W12 7FR 01622226 0000-00-00 0 0
BBH COMMUNICATIONS LIMITED , , 1ST FLOOR 2 TELEVISION CENTRE, 101 WOOD LANE, LONDON, ENGLAND AND WALES, UNITED KINGDOM, W12 7FR 02352341 0000-00-00 0 0
BBH HOLDINGS LIMITED , , 1ST FLOOR 2 TELEVISION CENTRE, 101 WOOD LANE, LONDON, ENGLAND AND WALES, UNITED KINGDOM, W12 7FR 03482404 0000-00-00 0 0 64209-Activities of other holding companies not elsewhere classified
BRAND PARTNERSHIP GROUP LIMITED TATE HOUSE, WATERMARK WAY, HERTFORD, HERTFORDSHIRE, ENGLAND, SG13 7TZ 09938132 0000-00-00 0 0
CLEAR CHANNEL HOLDINGS LIMITED , , 33 GOLDEN SQUARE, LONDON, , , , W1F 9JT 03565606 0000-00-00 0 0
CP INVESTMENT (UK) LIMITED , , AD HOUSE, 52 EAST PARADE, HARROGATE, NORTH YORKSHIRE, , , HG1 5LT 05850522 0000-00-00 0 0
FOREMAN & ASSOCIATES LIMITED , , G4, ASH HOUSE BUSINESS CENTRE ASH ROAD, NEW ASH GREEN, LONGFIELD, , ENGLAND, DA3 8JD 04425683 0000-00-00 0 0
MCCANN MANCHESTER LIMITED , , BONIS HALL, PRESTBURY, MACCLESFIELD CHESHIRE, , , SK10 4EF 01993425 0000-00-00 0 0
MCCANN-ERICKSON NETWORK LIMITED , , BONIS HALL, PRESTBURY, MACCLESFIELD CHESHIRE, , , SK10 4EF 01977043 0000-00-00 0 0
MEDIACOM GROUP LIMITED , , 124 THEOBALDS ROAD, LONDON, , , , WC1X 8RX 01889399 0000-00-00 0 0
MEDIACOM HOLDINGS LIMITED , , 124 THEOBALDS ROAD, LONDON, , , , WC1X 8RX 03525784 0000-00-00 0 0
MMS UK HOLDINGS LIMITED , , 1ST FLOOR 2 TELEVISION CENTRE, 101 WOOD LANE, LONDON, ENGLAND AND WALES, UNITED KINGDOM, W12 7FR 04982095 0000-00-00 0 0
NAPIER PARTNERSHIP LIMITED DONNINGTON PARK HOUSE, DONNINGTON PARK BIRDHAM ROAD, CHICHESTER, WEST SUSSEX, PO20 7DU 04138045 0000-00-00 0 0
POSTER PUBLICITY GROUP LIMITED THE INSPIRE, HORNBEAM PARK, HARROGATE, HG2 8PA 04390823 0000-00-00 0 0
POSTER PUBLICITY HOLDINGS LTD , , THE INSPIRE, HORNBEAM PARK, HARROGATE, , , HG2 8PA 03170737 0000-00-00 0 0
PUBLICIS MEDIA LIMITED , , 1ST FLOOR 2 TELEVISION CENTRE, 101 WOOD LANE, LONDON, ENGLAND AND WALES, UNITED KINGDOM, W12 7FR 04244479 0000-00-00 0 0
SHELTON FLEMING GROUP LIMITED , , 3RD FLOOR, SHAND HOUSE, 14-20 SHAND STREET, LONDON, , UNITED KINGDOM, SE1 2ES 01925750 0000-00-00 0 0
WPP RUSSELL UK ONE LIMITED , , SEA CONTAINERS HOUSE, 18 UPPER GROUND, LONDON, , UNITED KINGDOM, SE1 9GL 10931798 0000-00-00 0 0
WPP RUSSELL UK TWO LIMITED , , SEA CONTAINERS HOUSE, 18 UPPER GROUND, LONDON, , UNITED KINGDOM, SE1 9GL 10933317 0000-00-00 0 0
WPP SAMSON LIMITED SEA CONTAINERS HOUSE, 18 UPPER GROUND, LONDON, UNITED KINGDOM, SE1 9GL 10938469 0000-00-00 0 0
YH LIMITED , , 3 FORBURY PLACE, FORBURY ROAD, READING, BERKSHIRE, ENGLAND, RG1 3YL 04193755 0000-00-00 0 0





Disputes Register Do you have a dispute with a company? File it on www.disputesregister.org
Do you have a dispute with a business?
Make it public